Weather History for St. Petersburg, FL

Change the Weather History Date:

Friday, November 9, 2012

  Actual Average Record
Temperature  
Mean Temperature 64 °F -  
Max Temperature 72 °F 78 °F 86 °F (1986)
Min Temperature 55 °F 63 °F 44 °F (1951)
Degree Days  
Heating Degree Days 2    
Growing Degree Days 14 (Base 50)    
Moisture  
Dew Point 50 °F    
Average Humidity 61    
Maximum Humidity 81    
Minimum Humidity 42    
Precipitation  
Precipitation 0.00 in - - ()
Sea Level Pressure  
Sea Level Pressure 30.21 in    
Wind  
Wind Speed 8 mph (NE)    
Max Wind Speed 16 mph    
Max Gust Speed -    
Visibility 10 miles    
Events      
Averages and records for this station are not official NWS values.
T = Trace of Precipitation, MM = Missing Value Source: NWS Daily Summary

Daily Weather History Graph

Daily Weather History Graph

Search for Another Location

Airport:

Trip Planner

Search our weather history database for the weather conditions in past years. The results will help you decide how hot, cold, wet, or windy it might be!

Date:

Astronomy

Nov. 09, 2012 Rise Set
Actual Time 6:47 AM EST 5:40 PM EST
Civil Twilight 6:23 AM EST 6:05 PM EST
Nautical Twilight 5:54 AM EST 6:33 PM EST
Astronomical Twilight 5:27 AM EST 7:01 PM EST
Moon 2:08 AM EST (11/9) 2:32 PM EST (11/9)
Length of Visible Light 11h 42m
Length of Day
10h 53m
Waning Crescent, 23% of the Moon is Illuminated
Nov 9
Waning Crescent
Nov 13
New
Nov 20
First Quarter
Nov 28
Full
Dec 6
Last Quarter

Hourly Weather History & Observations

Time (EST) Temp. Dew Point Humidity Pressure Visibility Wind Dir Wind Speed Gust Speed Precip Events Conditions
12:53 AM 59.0 °F 53.1 °F 81% 30.17 in 10.0 mi NNE 6.9 mph - N/A   Clear
1:53 AM 59.0 °F 52.0 °F 78% 30.17 in 10.0 mi NE 10.4 mph - N/A   Clear
2:53 AM 60.1 °F 51.1 °F 72% 30.17 in 10.0 mi NE 9.2 mph - N/A   Clear
3:53 AM 59.0 °F 50.0 °F 72% 30.17 in 10.0 mi ENE 8.1 mph - N/A   Clear
4:53 AM 57.9 °F 51.1 °F 78% 30.18 in 10.0 mi NNE 5.8 mph - N/A   Clear
5:53 AM 57.0 °F 50.0 °F 77% 30.20 in 10.0 mi NNE 5.8 mph - N/A   Clear
6:53 AM 55.9 °F 50.0 °F 80% 30.22 in 10.0 mi NNE 5.8 mph - N/A   Clear
7:53 AM 60.1 °F 50.0 °F 69% 30.24 in 10.0 mi NE 10.4 mph - N/A   Clear
8:53 AM 61.0 °F 48.9 °F 64% 30.25 in 10.0 mi NE 11.5 mph - N/A   Clear
9:53 AM 64.0 °F 48.0 °F 56% 30.27 in 10.0 mi NE 9.2 mph - N/A   Clear
10:53 AM 64.9 °F 45.0 °F 48% 30.27 in 10.0 mi ENE 10.4 mph - N/A   Clear
11:53 AM 68.0 °F 45.0 °F 43% 30.25 in 10.0 mi ENE 8.1 mph - N/A   Clear
12:53 PM 70.0 °F 46.0 °F 42% 30.22 in 10.0 mi ENE 6.9 mph - N/A   Clear
1:53 PM 71.1 °F 46.9 °F 42% 30.19 in 10.0 mi ENE 5.8 mph - N/A   Clear
2:53 PM 72.0 °F 48.9 °F 44% 30.18 in 10.0 mi ENE 5.8 mph - N/A   Clear
3:53 PM 72.0 °F 48.9 °F 44% 30.16 in 10.0 mi NE 4.6 mph - N/A   Clear
4:53 PM 72.0 °F 51.1 °F 48% 30.16 in 10.0 mi NE 6.9 mph - N/A   Clear
5:53 PM 69.1 °F 52.0 °F 54% 30.18 in 10.0 mi NNE 5.8 mph - N/A   Clear
6:53 PM 68.0 °F 50.0 °F 52% 30.19 in 10.0 mi North 5.8 mph - N/A   Clear
7:53 PM 68.0 °F 52.0 °F 56% 30.20 in 10.0 mi ENE 13.8 mph - N/A   Clear
8:53 PM 66.9 °F 52.0 °F 59% 30.22 in 10.0 mi ENE 13.8 mph - N/A   Clear
9:53 PM 66.9 °F 48.9 °F 52% 30.23 in 10.0 mi East 15.0 mph - N/A   Clear
10:53 PM 64.9 °F 54.0 °F 68% 30.24 in 10.0 mi East 16.1 mph - N/A   Clear
11:53 PM 64.0 °F 55.0 °F 73% 30.23 in 10.0 mi East 13.8 mph - N/A   Clear